Dewpoint
56 59 59 59 60 60 61 64 64 66 66 67 67 68 69 69 68 68 67 67 68 68 68 68 69 70 71 70 71 69 71 70 71
55 57 59 59 60 62 62 64 65 65 65 66 68 67 69 69 69 69 68 68 67 68 68 68 68 71 70 71 70 71 70 70 70
54 56 60 60 60 62 63 63 66 67 67 66 68 68 68 68 69 69 69 69 68 68 67 66 68 70 70 70 70 71 70 70 69
54 56 60 61 61 62 63 65 66 67 68 67 67 68 68 68 69 69 69 68 68 68 67 66 66 67 69 68 70 71 70 70 69
55 56 58 60 61 64 64 65 65 67 68 68 68 68 68 69 69 69 68 68 68 68 66 65 65 67 69 68 70 69 70 70 70
59 60 61 59 61 64 65 65 66 67 69 69 69 69 70 69 69 69 68 68 68 68 68 66 67 69 68 68 69 70 70 70 70
60 60 59 60 62 64 65 67 68 68 69 70 70 70 70 69 69 69 69 68 68 68 67 67 66 68 69 69 70 68 69 70 71
60 61 63 64 61 64 66 67 68 69 70 70 70 70 70 70 70 70 70 69 69 69 68 67 68 69 69 67 67 67 66 68 69
57 60 62 64 65 65 66 66 67 68 68 68 69 69 69 70 69 70 70 70 70 70 70 70 69 69 66 63 61 59 63 64 67
59 59 61 62 63 65 65 65 65 66 66 68 68 68 69 69 69 68 69 70 70 70 69 69 68 65 63 61 59 57 57 61 64
57 56 59 60 61 64 64 65 66 66 66 66 67 67 68 68 68 68 69 69 69 69 69 69 67 65 62 59 58 55 56 60 63
56 56 57 58 59 60 62 63 66 67 67 66 67 67 68 68 68 68 67 67 67 68 68 69 67 64 61 60 58 55 56 63 63
55 56 56 56 57 58 59 60 64 67 67 67 66 67 67 68 68 67 67 67 67 66 66 63 62 59 58 56 56 55 56 62 61
54 54 54 56 56 56 57 60 62 61 63 63 64 68 68 67 67 67 67 66 66 63 59 56 53 50 47 45 46 49 54 57 58
53 53 53 54 55 55 56 59 60 59 59 61 63 63 63 66 66 67 66 64 62 60 57 53 49 45 43 43 44 50 51 54 57
51 52 52 53 52 53 54 56 58 58 58 59 58 58 58 56 56 57 60 63 61 60 60 56 51 47 44 44 46 45 50 51 52
50 51 51 51 51 50 50 52 54 56 58 58 57 56 56 56 57 55 55 54 54 55 55 58 57 53 50 48 44 42 43 44 43
50 50 49 49 49 49 49 49 50 53 54 56 56 54 53 52 52 51 48 47 48 49 45 47 52 52 52 50 45 38 39 40 39
50 50 49 47 47 47 47 47 48 49 50 52 55 54 52 51 51 49 47 47 45 41 42 41 40 40 43 40 42 39 38 37 38
51 49 49 48 47 46 48 47 47 49 49 45 43 43 42 50 50 47 44 40 38 36 39 39 39 39 39 38 37 38 37 36 38
Lifted_Index
0 0 -0 -0 -1 -1 -1 -1 -1 -1 -1 -1 -1 -2 -2 -2 -2 -2 -2 -2 -2 -1 -2 -2 -2 -3 -3 -3 -4 -4 -4 -4 -4
1 1 0 -0 -1 -1 -1 -1 -1 -0 -0 -1 -1 -1 -2 -2 -2 -2 -2 -2 -1 -1 -1 -2 -2 -2 -3 -3 -3 -4 -4 -4 -4
1 1 -0 -0 -1 -1 -1 -1 -1 -1 -1 -1 -1 -1 -1 -2 -2 -2 -2 -2 -1 -1 -1 -1 -1 -2 -2 -3 -3 -3 -3 -4 -4
1 0 -1 -1 -1 -1 -1 -2 -2 -1 -1 -1 -1 -1 -1 -1 -2 -2 -2 -2 -1 -1 -1 -0 -0 -1 -2 -3 -3 -3 -3 -3 -3
-0 -0 -1 -1 -1 -1 -1 -1 -2 -2 -2 -1 -1 -1 -1 -2 -2 -2 -2 -2 -1 -1 -0 0 1 -0 -1 -2 -3 -3 -3 -3 -3
-1 -1 -1 -1 -1 -1 -1 -1 -2 -2 -2 -2 -1 -2 -2 -2 -2 -2 -2 -2 -2 -1 -1 -0 -0 -1 -1 -2 -3 -3 -3 -3 -3
-2 -2 -1 -1 -1 -1 -1 -2 -3 -3 -3 -2 -2 -2 -2 -3 -3 -3 -3 -2 -2 -2 -1 -1 -1 -1 -2 -2 -3 -3 -3 -3 -3
-2 -2 -2 -2 -1 -1 -1 -2 -3 -3 -3 -3 -3 -3 -3 -3 -3 -3 -3 -3 -3 -2 -2 -1 -1 -2 -2 -2 -2 -2 -2 -2 -2
-1 -1 -2 -2 -1 -1 -1 -2 -2 -3 -3 -3 -3 -3 -3 -3 -3 -3 -3 -3 -3 -2 -2 -2 -1 -2 -2 -2 -2 -2 -2 -2 -2
-0 -1 -1 -2 -2 -1 -1 -1 -2 -2 -3 -3 -3 -3 -2 -2 -2 -2 -2 -2 -2 -2 -2 -1 -1 -1 -1 -1 -1 -1 -1 -1 -1
-0 -0 -1 -1 -1 -1 -2 -2 -1 -2 -2 -2 -2 -2 -2 -2 -2 -2 -2 -2 -2 -2 -1 -1 -1 -1 -0 -0 -0 -0 -0 -1 -1
-1 -1 -1 -1 -1 -2 -2 -2 -2 -1 -1 -1 -1 -1 -1 -1 -1 -1 -1 -1 -1 -1 -1 -1 -1 -1 -1 -0 -0 -0 0 -0 -0
-1 -1 -1 -1 -1 -2 -2 -2 -2 -2 -1 -1 -1 -1 -1 -1 -1 -1 -1 -1 -1 -1 -1 -1 -1 -1 -1 -1 -0 0 0 0 -0
-0 -1 -1 -1 -2 -2 -2 -2 -2 -2 -1 -1 -0 -1 -1 -1 -1 -1 -1 -0 -0 -0 -1 -1 -2 -1 -1 -1 -0 0 1 1 0
0 -0 -1 -1 -2 -1 -1 -1 -2 -2 -2 -1 -1 -1 -1 -1 -1 -1 -0 -0 -0 -1 -1 -1 -2 -2 -1 -0 0 0 1 1 1
1 1 0 -0 -1 -1 -1 -1 -1 -2 -2 -2 -2 -2 -1 -1 -1 -1 -0 -0 -0 -1 -1 -1 -1 -1 -1 -0 -0 0 1 1 2
1 1 1 1 0 0 0 0 0 -0 -1 -1 -2 -2 -2 -2 -2 -1 -1 -1 -1 -1 -1 -1 -1 -1 -1 -0 0 1 1 2 2
2 2 2 2 2 2 2 2 2 2 1 1 -0 -1 -1 -1 -1 -1 -1 -0 -0 -0 -0 -1 -1 -0 0 1 2 3 3 4 4
4 4 4 5 5 5 5 5 5 5 5 4 3 2 2 2 1 1 1 1 1 1 1 1 1 2 2 3 3 4 5 6 7
5 6 6 7 7 7 8 8 8 8 7 7 6 5 5 4 4 4 3 2 2 2 3 4 3 3 3 3 4 5 6 7 7